User: anonymous   Login
Location: Unspecified
(0.0000°N, 0.0000°E)
Time: 07:20:57
(UTC+01:00)
Language:

ISS - Orbit

View from above orbital plane
View from above orbital plane
View from above satellite
View from above satellite

Ground track
Ground track

The orbit data is extracted from the following two-line orbital elements,

1 25544U 98067A   17082.50948178  .00016717  00000-0  10270-3 0  9030
2 25544  51.6417 105.3836 0007491 329.0271  31.0439 15.54230466  8427
Epoch (UTC): 23 March 2017 12:13:39
Eccentricity: 0.0007491
inclination: 51.6417°
perigee height: 399 km
apogee height: 409 km
right ascension of ascending node: 105.3836°
argument of perigee: 329.0271°
revolutions per day: 15.54230466
mean anomaly at epoch: 31.0439°
orbit number at epoch: 842

The dashed part of the orbit path shows where the satellite is in the earth's shadow,  

DLR